CW8284 Weather Reports


Display with metric or nautical units.
time (UTC)temp
F
wind
direction
speed
MPH
gust
MPH
rain 1hr
in
rain 24hr
in
rain mn
in
humidity
%
barometer
mb
20260507011413 69 157 4.0 5.0 0.00 0.00 0.00 1013.9
20260507010113 69 202 4.0 9.0 0.00 0.00 0.00 1013.9
20260507010014 69 225 4.0 7.0 0.00 0.00 0.00 1013.7
20260507005913 69 157 1.0 3.0 0.00 0.00 0.00 1013.8
20260507005513 69 225 5.0 8.0 0.00 0.00 0.00 1013.8
20260507004514 70 225 5.0 9.0 0.00 0.00 0.00 1013.9
20260507004113 70 225 4.0 5.0 0.00 0.00 0.00 1013.7
20260507003713 70 225 6.0 7.0 0.00 0.00 0.00 1013.8
20260507002713 71 225 6.0 9.0 0.00 0.00 0.00 1013.9
20260507002613 71 202 7.0 10.0 0.00 0.00 0.00 1013.8
20260507002513 71 225 3.0 5.0 0.00 0.00 0.00 1014.0
20260507002413 71 225 4.0 9.0 0.00 0.00 0.00 1014.0
20260507002313 71 180 5.0 8.0 0.00 0.00 0.00 1013.8
20260507001913 71 157 3.0 6.0 0.00 0.00 0.00 1013.9
20260507001513 71 247 6.0 9.0 0.00 0.00 0.00 1013.8
20260507000213 72 180 3.0 5.0 0.00 0.00 0.00 1013.8
20260507000113 72 202 5.0 8.0 0.00 0.00 0.00 1013.8
20260507000013 72 225 5.0 10.0 0.00 0.00 0.00 1013.8
20260506235913 72 202 4.0 8.0 0.00 0.00 0.00 1013.6
20260506235813 72 225 2.0 3.0 0.00 0.00 0.00 1013.8
20260506235713 72 202 3.0 6.0 0.00 0.00 0.00 1013.7
20260506235613 72 180 6.0 10.0 0.00 0.00 0.00 1013.7
20260506234613 73 202 8.0 11.0 0.00 0.00 0.00 1013.7
20260506234513 73 247 8.0 12.0 0.00 0.00 0.00 1013.6
20260506234413 74 202 7.0 11.0 0.00 0.00 0.00 1013.6
20260506234313 74 225 5.0 7.0 0.00 0.00 0.00 1013.8
20260506234213 74 225 5.0 7.0 0.00 0.00 0.00 1013.7
20260506233813 74 202 5.0 9.0 0.00 0.00 0.00 1013.6
20260506233113 74 202 5.0 10.0 0.00 0.00 0.00 1013.6
20260506232713 73 225 6.0 8.0 0.00 0.00 0.00 1013.6
20260506232314 74 225 5.0 8.0 0.00 0.00 0.00 1013.6
20260506231913 74 135 4.0 9.0 0.00 0.00 0.00 1013.7
20260506231813 74 157 8.0 12.0 0.00 0.00 0.00 1013.8
20260506231713 74 180 6.0 11.0 0.00 0.00 0.00 1013.8
20260506230413 76 225 6.0 7.0 0.00 0.00 0.00 1013.6
20260506230313 77 225 9.0 11.0 0.00 0.00 0.00 1013.4
20260506225013 79 180 4.0 7.0 0.00 0.00 0.00 1013.8
20260506224913 79 202 4.0 8.0 0.00 0.00 0.00 1013.6
20260506224213 79 225 6.0 9.0 0.00 0.00 0.00 1013.8
20260506223513 80 270 5.0 9.0 0.00 0.00 0.00 1013.6
20260506223414 80 225 3.0 5.0 0.00 0.00 0.00 1013.7
20260506223313 80 112 3.0 8.0 0.00 0.00 0.00 1013.6
20260506223213 80 180 3.0 4.0 0.00 0.00 0.00 1013.6
20260506222813 80 202 4.0 9.0 0.00 0.00 0.00 1013.9
20260506222413 80 157 4.0 6.0 0.00 0.00 0.00 1014.0
20260506221713 81 180 3.0 5.0 0.00 0.00 0.00 1013.8
20260506221613 81 202 4.0 7.0 0.00 0.00 0.00 1013.8
20260506221513 81 202 5.0 6.0 0.00 0.00 0.00 1014.0
20260506221413 81 315 2.0 5.0 0.00 0.00 0.00 1013.8
20260506221313 81 112 2.0 3.0 0.00 0.00 0.00 1013.9
20260506221213 81 225 2.0 4.0 0.00 0.00 0.00 1014.2
20260506215913 81 157 2.0 2.0 0.00 0.00 0.00 1014.1
20260506215813 80 135 2.0 4.0 0.00 0.00 0.00 1014.1
20260506215713 80 270 2.0 4.0 0.00 0.00 0.00 1014.1
20260506215013 79 270 2.0 3.0 0.00 0.00 0.00 1014.1
20260506214913 79 292 3.0 4.0 0.00 0.00 0.00 1014.0
20260506214514 79 180 3.0 5.0 0.00 0.00 0.00 1014.2
20260506214113 79 135 1.0 2.0 0.00 0.00 0.00 1014.3
20260506213113 82 22 3.0 4.0 0.00 0.00 0.00 1014.7
20260506213013 82 337 2.0 5.0 0.00 0.00 0.00 1014.7
20260506212914 82 337 1.0 2.0 0.00 0.00 0.00 1014.6
20260506212213 80 180 2.0 3.0 0.00 0.00 0.00 1014.7
20260506211213 80 225 4.0 5.0 0.00 0.00 0.00 1014.7
20260506211113 80 225 2.0 6.0 0.00 0.00 0.00 1014.8
20260506210714 78 67 2.0 3.0 0.00 0.00 0.00 1014.8
20260506210613 78 45 2.0 3.0 0.00 0.00 0.00 1014.8
20260506210513 78 45 3.0 4.0 0.00 0.00 0.00 1014.8
20260506205813 79 225 4.0 5.0 0.00 0.00 0.00 1014.9
20260506205713 79 225 2.0 3.0 0.00 0.00 0.00 1015.1
20260506204713 77 112 2.0 4.0 0.00 0.00 0.00 1015.3
20260506204313 77 315 3.0 5.0 0.00 0.00 0.00 1015.4
20260506203913 76 270 2.0 4.0 0.00 0.00 0.00 1015.4
20260506203813 76 202 2.0 4.0 0.00 0.00 0.00 1015.3
20260506203713 76 337 3.0 4.0 0.00 0.00 0.00 1015.4
20260506203613 76 270 4.0 7.0 0.00 0.00 0.00 1015.5
20260506203213 77 225 6.0 9.0 0.00 0.00 0.00 1015.5
20260506203113 77 225 1.0 3.0 0.00 0.00 0.00 1015.3
20260506202713 76 225 1.0 2.0 0.00 0.00 0.00 1015.4
20260506202613 76 180 1.0 2.0 0.00 0.00 0.00 1015.4
20260506202213 74 0 1.0 2.0 0.00 0.00 0.00 1015.7
20260506201813 74 202 4.0 6.0 0.00 0.00 0.00 1015.7
20260506201413 74 225 5.0 9.0 0.00 0.00 0.00 1015.6
20260506201013 75 225 5.0 8.0 0.00 0.00 0.00 1015.6
20260506195713 75 337 5.0 6.0 0.00 0.00 0.00 1015.8
20260506195613 75 315 2.0 3.0 0.00 0.00 0.00 1015.7
20260506195214 75 292 1.0 2.0 0.00 0.00 0.00 1015.8
20260506195113 75 112 3.0 5.0 0.00 0.00 0.00 1015.7
20260506194713 75 0 3.0 3.0 0.00 0.00 0.00 1015.9
20260506194313 74 180 2.0 3.0 0.00 0.00 0.00 1015.9
20260506194213 74 225 2.0 3.0 0.00 0.00 0.00 1015.9
20260506193813 73 180 2.0 3.0 0.00 0.00 0.00 1016.0
20260506193413 72 0 2.0 3.0 0.00 0.00 0.00 1016.1
20260506193313 72 292 4.0 5.0 0.00 0.00 0.00 1016.2
20260506193213 71 225 2.0 5.0 0.00 0.00 0.00 1016.1
20260506192513 72 225 3.0 6.0 0.00 0.00 0.00 1016.1
20260506191813 74 225 3.0 6.0 0.00 0.00 0.00 1016.3
20260506191713 74 202 1.0 4.0 0.00 0.00 0.00 1016.2
20260506190413 71 112 2.0 4.0 0.00 0.00 0.00 1016.3
20260506190313 70 135 1.0 2.0 0.00 0.00 0.00 1016.6
20260506185913 70 247 1.0 1.0 0.00 0.00 0.00 1016.6
20260506184914 71 315 1.0 2.0 0.00 0.00 0.00 1016.5
20260506184513 70 0 1.0 2.0 0.00 0.00 0.00 1016.6
20260506184413 70 112 1.0 2.0 0.00 0.00 0.00 1016.6
20260506183713 70 202 1.0 2.0 0.00 0.00 0.00 1016.7
20260506183613 70 135 1.0 3.0 0.00 0.00 0.00 1016.7
20260506183513 70 157 1.0 2.0 0.00 0.00 0.00 1016.8
20260506183413 70 157 1.0 2.0 0.00 0.00 0.00 1016.8
20260506183313 70 157 2.0 2.0 0.00 0.00 0.00 1016.7
20260506183213 70 135 1.0 2.0 0.00 0.00 0.00 1016.8
20260506183114 70 180 2.0 3.0 0.00 0.00 0.00 1016.8
20260506182713 69 180 3.0 6.0 0.00 0.00 0.00 1016.8
20260506182313 69 225 2.0 3.0 0.00 0.00 0.00 1016.9
20260506181313 68 315 3.0 3.0 0.00 0.00 0.00 1017.0
20260506181213 68 337 2.0 4.0 0.00 0.00 0.00 1016.8
20260506174713 67 202 2.0 3.0 0.00 0.00 0.00 1017.0
20260506174013 68 225 1.0 2.0 0.00 0.00 0.00 1017.0
20260506173313 68 157 1.0 2.0 0.00 0.00 0.00 1017.0
20260506172313 66 202 1.0 2.0 0.00 0.00 0.00 1017.1
20260506172213 66 292 1.0 2.0 0.00 0.00 0.00 1017.1
20260506172113 66 292 2.0 3.0 0.00 0.00 0.00 1017.0
20260506170813 63 202 1.0 2.0 0.00 0.00 0.00 1016.8
20260506170413 62 180 1.0 3.0 0.00 0.00 0.00 1016.9
20260506165713 62 225 3.0 4.0 0.00 0.00 0.00 1016.7
20260506165313 64 180 2.0 4.0 0.00 0.00 0.00 1017.0
20260506164013 63 225 1.0 2.0 0.00 0.00 0.00 1016.9
20260506163913 63 202 0.0 2.0 0.00 0.00 0.00 1017.0
20260506162013 63 180 2.0 2.0 0.00 0.00 0.00 1017.0
20260506161613 63 247 2.0 3.0 0.00 0.00 0.00 1017.1
20260506161213 64 112 1.0 2.0 0.00 0.00 0.00 1017.0
20260506161113 64 180 1.0 3.0 0.00 0.00 0.00 1016.9
20260506161014 64 157 0.0 1.0 0.00 0.00 0.00 1016.6
20260506160613 64 180 1.0 1.0 0.00 0.00 0.00 1016.9
20260506155913 65 202 0.0 1.0 0.00 0.00 0.00 1016.9
20260506155213 63 0 1.0 2.0 0.00 0.00 0.00 1016.8
20260506155113 63 292 1.0 2.0 0.00 0.00 0.00 1016.9
20260506155013 63 337 1.0 2.0 0.00 0.00 0.00 1017.0
20260506154614 63 67 2.0 3.0 0.00 0.00 0.00 1017.0
20260506154213 63 112 1.0 3.0 0.00 0.00 0.00 1017.1
20260506153815 64 135 1.0 2.0 0.00 0.00 0.00 1017.1
20260506153713 63 135 0.0 1.0 0.00 0.00 0.00 1017.0
20260506153314 63 45 1.0 2.0 0.00 0.00 0.00 1017.1
20260506153213 63 202 0.0 2.0 0.00 0.00 0.00 1017.0
20260506151913 62 90 2.0 3.0 0.00 0.00 0.00 1017.0
20260506151513 61 135 1.0 2.0 0.00 0.00 0.00 1017.1
20260506151414 61 135 1.0 1.0 0.00 0.00 0.00 1017.0
20260506150414 62 90 0.0 0.0 0.00 0.00 0.00 1017.0
20260506150313 61 90 0.0 1.0 0.00 0.00 0.00 1017.0
20260506150215 61 90 1.0 2.0 0.00 0.00 0.00 1017.0
20260506145513 61 90 1.0 1.0 0.00 0.00 0.00 1017.0
20260506144815 60 112 1.0 2.0 0.00 0.00 0.00 1016.9
20260506144113 60 45 0.0 1.0 0.00 0.00 0.00 1016.9
20260506142513 57 45 0.0 0.0 0.00 0.00 0.00 1017.0
20260506142113 56 45 0.0 1.0 0.00 0.00 0.00 1016.8
20260506142013 55 45 0.0 1.0 0.00 0.00 0.00 1016.8
20260506141913 55 292 0.0 0.0 0.00 0.00 0.00 1016.8
20260506141813 55 315 0.0 0.0 0.00 0.00 0.00 1016.8
20260506141413 53 0 0.0 0.0 0.00 0.00 0.00 1017.2
20260506140414 49 22 0.0 0.0 0.00 0.00 0.00 1016.9
20260506135714 48 22 0.0 0.0 0.00 0.00 0.00 1016.9
20260506135313 47 22 0.0 0.0 0.00 0.00 0.00 1016.8
20260506134613 46 22 0.0 0.0 0.00 0.00 0.00 1016.8
20260506133913 46 22 0.0 0.0 0.00 0.00 0.00 1016.9
20260506132913 46 22 0.0 0.0 0.00 0.00 0.00 1016.6
20260506132514 46 22 0.0 0.0 0.00 0.00 0.00 1016.7
20260506132113 46 22 0.0 0.0 0.00 0.00 0.00 1016.5
20260506131413 45 22 0.0 0.0 0.00 0.00 0.00 1016.5
20260506131013 45 22 0.0 0.0 0.00 0.00 0.00 1016.6
20260506130613 45 22 0.0 1.0 0.00 0.00 0.00 1016.5
20260506130213 44 22 0.0 1.0 0.00 0.00 0.00 1016.4
20260506125813 44 22 0.0 1.0 0.00 0.00 0.00 1016.5
20260506124513 44 22 0.0 0.0 0.00 0.00 0.00 1016.6
20260506124413 44 22 0.0 0.0 0.00 0.00 0.00 1016.5
20260506124313 44 22 0.0 0.0 0.00 0.00 0.00 1016.5
20260506123913 44 22 0.0 0.0 0.00 0.00 0.00 1016.6
20260506123813 44 22 0.0 0.0 0.00 0.00 0.00 1016.4
20260506123414 44 22 0.0 0.0 0.00 0.00 0.00 1016.2
20260506123313 43 22 0.0 0.0 0.00 0.00 0.00 1016.4
20260506122613 43 22 0.0 0.0 0.00 0.00 0.00 1016.1
20260506122214 43 22 0.0 0.0 0.00 0.00 0.00 1016.2
20260506121213 44 22 0.0 0.0 0.00 0.00 0.00 1016.1
20260506120813 44 22 0.0 0.0 0.00 0.00 0.00 1016.1
20260506120414 44 22 0.0 0.0 0.00 0.00 0.00 1016.0
20260506120313 44 22 0.0 0.0 0.00 0.00 0.00 1016.0
20260506114713 44 22 1.0 1.0 0.00 0.00 0.00 1016.0
20260506113714 44 337 0.0 0.0 0.00 0.00 0.00 1016.2
20260506113613 44 337 0.0 0.0 0.00 0.00 0.00 1016.0
20260506113513 44 337 0.0 0.0 0.00 0.00 0.00 1016.1
20260506113413 44 337 0.0 0.0 0.00 0.00 0.00 1015.9
20260506113013 44 337 0.0 0.0 0.00 0.00 0.00 1016.1
20260506112913 44 337 0.0 1.0 0.00 0.00 0.00 1015.7
20260506112813 44 337 0.0 0.0 0.00 0.00 0.00 1016.1
20260506112713 44 292 0.0 1.0 0.00 0.00 0.00 1015.7
20260506111713 44 337 0.0 0.0 0.00 0.00 0.00 1015.9
20260506111614 44 337 0.0 0.0 0.00 0.00 0.00 1016.0
20260506110313 45 315 0.0 0.0 0.00 0.00 0.00 1015.8
20260506110213 44 315 0.0 0.0 0.00 0.00 0.00 1015.7
20260506110114 44 315 0.0 0.0 0.00 0.00 0.00 1015.7
20260506110013 44 315 0.0 0.0 0.00 0.00 0.00 1015.7
20260506105914 44 315 0.0 0.0 0.00 0.00 0.00 1016.0
20260506105813 44 315 0.0 0.0 0.00 0.00 0.00 1015.8
20260506105713 44 292 0.0 0.0 0.00 0.00 0.00 1015.7
20260506105613 44 45 0.0 0.0 0.00 0.00 0.00 1015.8
20260506105513 44 45 0.0 0.0 0.00 0.00 0.00 1015.8
20260506105113 45 45 0.0 0.0 0.00 0.00 0.00 1015.9
20260506105013 45 45 0.0 0.0 0.00 0.00 0.00 1015.8
20260506104914 45 45 0.0 0.0 0.00 0.00 0.00 1015.9
20260506103313 45 45 1.0 2.0 0.00 0.00 0.00 1015.9
20260506102913 45 45 0.0 0.0 0.00 0.00 0.00 1015.8
20260506102813 45 45 0.0 0.0 0.00 0.00 0.00 1016.0
20260506102413 45 0 0.0 0.0 0.00 0.00 0.00 1016.0
20260506102314 45 0 0.0 0.0 0.00 0.00 0.00 1015.9
20260506102213 45 0 0.0 0.0 0.00 0.00 0.00 1015.9
20260506101813 45 22 0.0 0.0 0.00 0.00 0.00 1015.9
20260506101713 46 22 0.0 0.0 0.00 0.00 0.00 1016.0
20260506101013 46 0 0.0 0.0 0.00 0.00 0.00 1015.7
20260506100613 46 0 0.0 0.0 0.00 0.00 0.00 1015.9
20260506100513 46 0 0.0 1.0 0.00 0.00 0.00 1015.9
20260506095813 47 0 0.0 0.0 0.00 0.00 0.00 1015.9
20260506095713 47 0 0.0 1.0 0.00 0.00 0.00 1016.0
20260506094113 47 292 1.0 2.0 0.00 0.00 0.00 1015.8
20260506093713 47 337 1.0 2.0 0.00 0.00 0.00 1015.8
20260506093313 47 22 1.0 2.0 0.00 0.00 0.00 1015.8
20260506093213 47 22 1.0 1.0 0.00 0.00 0.00 1015.8
20260506093113 47 22 1.0 2.0 0.00 0.00 0.00 1015.7
20260506092413 47 22 1.0 2.0 0.00 0.00 0.00 1015.8
20260506092313 47 22 1.0 1.0 0.00 0.00 0.00 1015.8
20260506091914 46 22 1.0 1.0 0.00 0.00 0.00 1015.8
20260506091513 46 22 0.0 1.0 0.00 0.00 0.00 1015.8
20260506091413 46 0 0.0 0.0 0.00 0.00 0.00 1016.0
20260506091313 47 0 0.0 0.0 0.00 0.00 0.00 1015.9
20260506091214 47 0 0.0 0.0 0.00 0.00 0.00 1015.9
20260506091113 47 22 0.0 0.0 0.00 0.00 0.00 1015.9
20260506090713 47 22 0.0 0.0 0.00 0.00 0.00 1015.9
20260506090313 47 22 0.0 0.0 0.00 0.00 0.00 1016.1
20260506084413 48 45 1.0 1.0 0.00 0.00 0.00 1016.2
20260506084013 48 45 1.0 2.0 0.00 0.00 0.00 1016.2
20260506082113 48 45 1.0 1.0 0.00 0.00 0.00 1016.4
20260506081413 48 22 0.0 1.0 0.00 0.00 0.00 1016.3
20260506081313 48 22 0.0 1.0 0.00 0.00 0.00 1016.3
20260506081213 48 22 0.0 1.0 0.00 0.00 0.00 1016.3
20260506081113 48 22 1.0 1.0 0.00 0.00 0.00 1016.2
20260506081013 48 22 1.0 2.0 0.00 0.00 0.00 1016.4
20260506080913 48 0 1.0 1.0 0.00 0.00 0.00 1016.3
20260506073313 49 22 0.0 1.0 0.00 0.00 0.00 1016.4
20260506072313 49 337 1.0 2.0 0.00 0.00 0.00 1016.4
20260506070713 49 0 0.0 0.0 0.00 0.00 0.00 1016.3
20260506070313 49 0 0.0 0.0 0.00 0.00 0.00 1016.2
20260506062513 52 0 0.0 1.0 0.00 0.00 0.00 1015.8
20260506061813 52 0 0.0 1.0 0.00 0.00 0.00 1015.6
20260506060513 52 22 0.0 1.0 0.00 0.00 0.00 1015.7
20260506060413 52 0 1.0 1.0 0.00 0.00 0.00 1015.7
20260506050713 52 22 0.0 0.0 0.00 0.00 0.00 1015.3
20260506050613 53 22 0.0 0.0 0.00 0.00 0.00 1015.3
20260506050513 53 22 0.0 0.0 0.00 0.00 0.00 1015.3
20260506050113 53 22 0.0 0.0 0.00 0.00 0.00 1015.2
20260506045113 53 0 1.0 2.0 0.00 0.00 0.00 1015.2
20260506044713 53 337 1.0 1.0 0.00 0.00 0.00 1015.0
20260506044013 52 45 1.0 2.0 0.00 0.00 0.00 1015.0
20260506043613 52 45 0.0 1.0 0.00 0.00 0.00 1015.2
20260506042313 51 45 1.0 1.0 0.00 0.00 0.00 1014.7
20260506041313 51 0 0.0 0.0 0.00 0.00 0.00 1014.7
20260506041213 51 0 0.0 0.0 0.00 0.00 0.00 1014.5
20260506041113 52 0 0.0 0.0 0.00 0.00 0.00 1014.7
20260506041013 52 0 0.0 0.0 0.00 0.00 0.00 1014.4
20260506040613 52 0 0.0 0.0 0.00 0.00 0.00 1014.4
20260506040213 52 0 0.0 0.0 0.00 0.00 0.00 1014.5
20260506035813 53 0 0.0 0.0 0.00 0.00 0.00 1014.3
20260506035713 53 0 0.0 0.0 0.00 0.00 0.00 1014.2
20260506035613 53 0 0.0 0.0 0.00 0.00 0.00 1014.1
20260506035513 53 0 0.0 0.0 0.00 0.00 0.00 1014.2
20260506035416 53 0 0.0 0.0 0.00 0.00 0.00 1014.1
20260506034213 53 0 0.0 0.0 0.00 0.00 0.00 1014.0
20260506033814 54 0 0.0 0.0 0.00 0.00 0.00 1014.1
20260506033213 54 0 0.0 0.0 0.00 0.00 0.00 1013.8
20260506032813 54 0 0.0 0.0 0.00 0.00 0.00 1013.9
20260506032413 54 0 1.0 1.0 0.00 0.00 0.00 1014.0
20260506032013 54 0 1.0 1.0 0.00 0.00 0.00 1013.8
20260506031913 54 337 0.0 0.0 0.00 0.00 0.00 1013.7
20260506031814 54 337 0.0 0.0 0.00 0.00 0.00 1013.7
20260506031714 54 337 0.0 0.0 0.00 0.00 0.00 1013.7
20260506031313 54 337 0.0 0.0 0.00 0.00 0.00 1013.6
20260506030914 54 315 0.0 0.0 0.00 0.00 0.00 1013.6
20260506030213 55 315 0.0 0.0 0.00 0.00 0.00 1013.6
20260506030113 55 315 0.0 0.0 0.00 0.00 0.00 1013.6
20260506030013 55 315 0.0 0.0 0.00 0.00 0.00 1013.6
20260506025913 55 270 0.0 0.0 0.00 0.00 0.00 1013.6
20260506025513 56 270 0.0 0.0 0.00 0.00 0.00 1013.5
20260506025413 56 270 0.0 0.0 0.00 0.00 0.00 1013.4
20260506025313 56 270 0.0 0.0 0.00 0.00 0.00 1013.2
20260506025213 56 270 0.0 0.0 0.00 0.00 0.00 1013.4
20260506025113 57 270 0.0 0.0 0.00 0.00 0.00 1013.3
20260506025013 57 270 0.0 0.0 0.00 0.00 0.00 1013.2
20260506024913 57 270 0.0 0.0 0.00 0.00 0.00 1013.4
20260506024214 58 270 0.0 1.0 0.00 0.00 0.00 1013.2
20260506023813 58 225 1.0 2.0 0.00 0.00 0.00 1013.3
20260506023113 58 225 3.0 4.0 0.00 0.00 0.00 1013.0
20260506023013 58 225 3.0 4.0 0.00 0.00 0.00 1013.2
20260506022913 58 225 3.0 4.0 0.00 0.00 0.00 1013.2
20260506022813 58 225 3.0 4.0 0.00 0.00 0.00 1013.2
20260506022713 59 225 3.0 5.0 0.00 0.00 0.00 1013.3
20260506022613 59 225 1.0 1.0 0.00 0.00 0.00 1013.2
20260506022213 59 0 1.0 1.0 0.00 0.00 0.00 1013.0
20260506021513 59 270 2.0 3.0 0.00 0.00 0.00 1012.8
20260506021413 59 225 2.0 3.0 0.00 0.00 0.00 1012.8
20260506021013 60 225 4.0 5.0 0.00 0.00 0.00 1012.6
20260506020913 60 225 3.0 5.0 0.00 0.00 0.00 1012.6
20260506020513 60 225 3.0 4.0 0.00 0.00 0.00 1012.5
20260506020113 60 225 3.0 5.0 0.00 0.00 0.00 1012.7
20260506015713 60 225 3.0 4.0 0.00 0.00 0.00 1012.9
20260506015613 60 202 4.0 5.0 0.00 0.00 0.00 1012.8
20260506015513 60 225 4.0 6.0 0.00 0.00 0.00 1012.7
20260506015113 61 225 3.0 4.0 0.00 0.00 0.00 1012.8
20260506014713 61 202 3.0 4.0 0.00 0.00 0.00 1012.4
20260506014613 61 225 3.0 4.0 0.00 0.00 0.00 1012.7
20260506013913 61 315 2.0 3.0 0.00 0.00 0.00 1012.5
20260506013813 61 270 2.0 4.0 0.00 0.00 0.00 1012.5
20260506013413 61 225 2.0 4.0 0.00 0.00 0.00 1012.6
20260506012713 61 225 3.0 4.0 0.00 0.00 0.00 1012.6
20260506012613 61 202 3.0 4.0 0.00 0.00 0.00 1012.4
20260506011913 61 180 3.0 4.0 0.00 0.00 0.00 1012.6
20260506011813 61 225 2.0 3.0 0.00 0.00 0.00 1012.6
20260506011713 61 247 1.0 2.0 0.00 0.00 0.00 1012.6